HS6BUE-3 Weather Reports


Display with metric or nautical units.
time (UTC)temp
F
wind
direction
speed
MPH
gust
MPH
rain 1hr
in
rain 24hr
in
rain mn
in
humidity
%
barometer
mb
20260904092500 80 0 0.0 0.0 0.00 0.00 0.00 52 1001.0
20260904091437 79 0 0.0 0.0 0.00 0.00 0.00 43 1001.0
20260904090414 79 0 0.0 0.0 0.00 0.00 0.00 41 1001.0
20260904085352 79 0 0.0 0.0 0.00 0.00 0.00 44 1001.0
20260904084329 80 0 0.0 0.0 0.00 0.00 0.00 51 1001.0
20260904083306 79 0 0.0 0.0 0.00 0.00 0.00 42 1001.0
20260904082244 79 0 0.0 0.0 0.00 0.00 0.00 40 1001.0
20260904081221 79 0 0.0 0.0 0.00 0.00 0.00 43 1001.0
20260904080158 80 0 0.0 0.0 0.00 0.00 0.00 50 1001.0
20260904075135 79 0 0.0 0.0 0.00 0.00 0.00 42 1001.0
20260904074113 79 0 0.0 0.0 0.00 0.00 0.00 40 1001.0
20260904073050 79 0 0.0 0.0 0.00 0.00 0.00 43 1001.0
20260904072029 81 0 0.0 0.0 0.00 0.00 0.00 49 1002.0
20260904071005 79 0 0.0 0.0 0.00 0.00 0.00 37 1002.0
20260904065942 79 0 0.0 0.0 0.00 0.00 0.00 38 1002.0
20260904064920 80 0 0.0 0.0 0.00 0.00 0.00 38 1002.0
20260904063857 80 0 0.0 0.0 0.00 0.00 0.00 37 1002.0
20260904062835 80 0 0.0 0.0 0.00 0.00 0.00 37 1002.0
20260904061811 80 0 0.0 0.0 0.00 0.00 0.00 37 1002.0
20260904060749 81 0 0.0 0.0 0.00 0.00 0.00 37 1002.0
20260904055726 81 0 0.0 0.0 0.00 0.00 0.00 36 1003.0
20260904054704 80 0 0.0 0.0 0.00 0.00 0.00 36 1003.0
20260904053641 80 0 0.0 0.0 0.00 0.00 0.00 36 1003.0
20260904052619 80 0 0.0 0.0 0.00 0.00 0.00 36 1003.0
20260904051556 80 0 0.0 0.0 0.00 0.00 0.00 36 1003.0
20260904050533 80 0 0.0 0.0 0.00 0.00 0.00 36 1004.0
20260904045510 80 0 0.0 0.0 0.00 0.00 0.00 36 1004.0
20260904044448 80 0 0.0 0.0 0.00 0.00 0.00 36 1004.0
20260904043425 80 0 0.0 0.0 0.00 0.00 0.00 36 1004.0
20260904042404 80 0 0.0 0.0 0.00 0.00 0.00 37 1004.0
20260904041340 80 0 0.0 0.0 0.00 0.00 0.00 38 1004.0
20260904040317 80 0 0.0 0.0 0.00 0.00 0.00 37 1004.0
20260904035254 80 0 0.0 0.0 0.00 0.00 0.00 37 1004.0
20260904034231 80 0 0.0 0.0 0.00 0.00 0.00 37 1004.0
20260904033209 79 0 0.0 0.0 0.00 0.00 0.00 37 1004.0
20260904032146 80 0 0.0 0.0 0.00 0.00 0.00 37 1004.0
20260904031123 80 0 0.0 0.0 0.00 0.00 0.00 37 1004.0
20260904030101 80 0 0.0 0.0 0.00 0.00 0.00 37 1004.0
20260904025038 80 0 0.0 0.0 0.00 0.00 0.00 37 1004.0
20260904024015 80 0 0.0 0.0 0.00 0.00 0.00 37 1004.0
20260904022953 80 0 0.0 0.0 0.00 0.00 0.00 37 1004.0
20260904021930 80 0 0.0 0.0 0.00 0.00 0.00 37 1004.0
20260904020907 80 0 0.0 0.0 0.00 0.00 0.00 38 1004.0
20260904015845 80 0 0.0 0.0 0.00 0.00 0.00 38 1004.0
20260904014822 80 0 0.0 0.0 0.00 0.00 0.00 38 1004.0
20260904013800 80 0 0.0 0.0 0.00 0.00 0.00 39 1004.0
20260904012737 80 0 0.0 0.0 0.00 0.00 0.00 40 1004.0
20260904011714 80 0 0.0 0.0 0.00 0.00 0.00 43 1004.0
20260904010652 81 0 0.0 0.0 0.00 0.00 0.00 45 1004.0
20260904005629 81 0 0.0 0.0 0.00 0.00 0.00 48 1004.0
20260904004606 81 0 0.0 0.0 0.00 0.00 0.00 50 1004.0
20260904003544 85 0 0.0 0.0 0.00 0.00 0.00 58 1004.0
20260904002522 86 0 0.0 0.0 0.00 0.00 0.00 63 1004.0
20260904001458 86 0 0.0 0.0 0.00 0.00 0.00 63 1003.0
20260904000437 86 0 0.0 0.0 0.00 0.00 0.00 63 1003.0
20260903235413 86 0 0.0 0.0 0.00 0.00 0.00 64 1003.0
20260903234350 86 0 0.0 0.0 0.00 0.00 0.00 65 1003.0
20260903233329 86 0 0.0 0.0 0.00 0.00 0.00 64 1003.0
20260903232306 86 0 0.0 0.0 0.00 0.00 0.00 65 1003.0
20260903231242 86 0 0.0 0.0 0.00 0.00 0.00 67 1002.0
20260903230219 86 0 0.0 0.0 0.00 0.00 0.00 68 1002.0
20260903225157 86 0 0.0 0.0 0.00 0.00 0.00 68 1002.0
20260903224135 86 0 0.0 0.0 0.00 0.00 0.00 68 1002.0
20260903223112 86 0 0.0 0.0 0.00 0.00 0.00 67 1002.0
20260903222049 86 0 0.0 0.0 0.00 0.00 0.00 66 1002.0
20260903221026 86 0 0.0 0.0 0.00 0.00 0.00 66 1002.0
20260903220004 86 0 0.0 0.0 0.00 0.00 0.00 66 1002.0
20260903214941 86 0 0.0 0.0 0.00 0.00 0.00 67 1002.0
20260903213918 86 0 0.0 0.0 0.00 0.00 0.00 66 1002.0
20260903212856 86 0 0.0 0.0 0.00 0.00 0.00 65 1002.0
20260903211833 86 0 0.0 0.0 0.00 0.00 0.00 66 1002.0
20260903210810 86 0 0.0 0.0 0.00 0.00 0.00 65 1002.0
20260903205748 86 0 0.0 0.0 0.00 0.00 0.00 65 1002.0
20260903204725 86 0 0.0 0.0 0.00 0.00 0.00 64 1002.0
20260903203703 86 0 0.0 0.0 0.00 0.00 0.00 64 1002.0
20260903202640 86 0 0.0 0.0 0.00 0.00 0.00 64 1002.0
20260903201617 86 0 0.0 0.0 0.00 0.00 0.00 64 1002.0
20260903200554 86 0 0.0 0.0 0.00 0.00 0.00 64 1002.0
20260903195532 86 0 0.0 0.0 0.00 0.00 0.00 64 1002.0
20260903194509 86 0 0.0 0.0 0.00 0.00 0.00 63 1002.0
20260903193447 86 0 0.0 0.0 0.00 0.00 0.00 63 1002.0
20260903192424 87 0 0.0 0.0 0.00 0.00 0.00 64 1002.0
20260903191401 86 0 0.0 0.0 0.00 0.00 0.00 64 1002.0
20260903190338 87 0 0.0 0.0 0.00 0.00 0.00 63 1002.0
20260903185316 87 0 0.0 0.0 0.00 0.00 0.00 63 1002.0
20260903184253 87 0 0.0 0.0 0.00 0.00 0.00 64 1002.0
20260903183230 87 0 0.0 0.0 0.00 0.00 0.00 63 1002.0
20260903182208 87 0 0.0 0.0 0.00 0.00 0.00 63 1002.0
20260903181145 87 0 0.0 0.0 0.00 0.00 0.00 62 1003.0
20260903180122 87 0 0.0 0.0 0.00 0.00 0.00 62 1003.0
20260903175100 87 0 0.0 0.0 0.00 0.00 0.00 62 1003.0
20260903174037 87 0 0.0 0.0 0.00 0.00 0.00 61 1003.0
20260903173014 87 0 0.0 0.0 0.00 0.00 0.00 60 1003.0
20260903171952 86 0 0.0 0.0 0.00 0.00 0.00 60 1003.0
20260903170929 87 0 0.0 0.0 0.00 0.00 0.00 60 1003.0
20260903165907 87 0 0.0 0.0 0.00 0.00 0.00 60 1003.0
20260903164844 86 0 0.0 0.0 0.00 0.00 0.00 60 1003.0
20260903163821 86 0 0.0 0.0 0.00 0.00 0.00 60 1003.0
20260903162759 87 0 0.0 0.0 0.00 0.00 0.00 59 1003.0
20260903161736 87 0 0.0 0.0 0.00 0.00 0.00 59 1003.0
20260903160713 86 0 0.0 0.0 0.00 0.00 0.00 59 1003.0
20260903155651 86 0 0.0 0.0 0.00 0.00 0.00 59 1003.0
20260903154628 86 0 0.0 0.0 0.00 0.00 0.00 59 1003.0
20260903153605 86 0 0.0 0.0 0.00 0.00 0.00 59 1003.0
20260903152543 86 0 0.0 0.0 0.00 0.00 0.00 59 1003.0
20260903151520 86 0 0.0 0.0 0.00 0.00 0.00 58 1003.0
20260903150457 87 0 0.0 0.0 0.00 0.00 0.00 57 1003.0
20260903145434 86 0 0.0 0.0 0.00 0.00 0.00 57 1003.0
20260903144412 86 0 0.0 0.0 0.00 0.00 0.00 56 1003.0
20260903143349 86 0 0.0 0.0 0.00 0.00 0.00 56 1003.0
20260903142327 86 0 0.0 0.0 0.00 0.00 0.00 56 1002.0
20260903141304 86 0 0.0 0.0 0.00 0.00 0.00 55 1002.0
20260903140241 86 0 0.0 0.0 0.00 0.00 0.00 55 1002.0
20260903135218 86 0 0.0 0.0 0.00 0.00 0.00 55 1002.0
20260903134156 86 0 0.0 0.0 0.00 0.00 0.00 54 1002.0
20260903133133 86 0 0.0 0.0 0.00 0.00 0.00 53 1002.0
20260903132836 86 0 0.0 0.0 0.00 0.00 0.00 53 1002.0
20260903131813 86 0 0.0 0.0 0.00 0.00 0.00 53 1002.0
20260903130751 86 0 0.0 0.0 0.00 0.00 0.00 53 1002.0
20260903125728 86 0 0.0 0.0 0.00 0.00 0.00 52 1001.0
20260903124705 86 0 0.0 0.0 0.00 0.00 0.00 52 1001.0
20260903123643 86 0 0.0 0.0 0.00 0.00 0.00 51 1001.0
20260903122620 86 0 0.0 0.0 0.00 0.00 0.00 51 1001.0
20260903121557 86 0 0.0 0.0 0.00 0.00 0.00 50 1000.0
20260903120535 86 0 0.0 0.0 0.00 0.00 0.00 50 1000.0
20260903115512 86 0 0.0 0.0 0.00 0.00 0.00 49 1000.0
20260903114449 86 0 0.0 0.0 0.00 0.00 0.00 48 1000.0
20260903113427 86 0 0.0 0.0 0.00 0.00 0.00 48 1000.0
20260903112404 86 0 0.0 0.0 0.00 0.00 0.00 47 1000.0
20260903111341 85 0 0.0 0.0 0.00 0.00 0.00 46 1000.0
20260903110319 85 0 0.0 0.0 0.00 0.00 0.00 45 1000.0
20260903105256 85 0 0.0 0.0 0.00 0.00 0.00 45 999.0
20260903104233 85 0 0.0 0.0 0.00 0.00 0.00 44 999.0
20260903103211 84 0 0.0 0.0 0.00 0.00 0.00 43 999.0
20260903102148 83 0 0.0 0.0 0.00 0.00 0.00 43 999.0
20260903101125 81 0 0.0 0.0 0.00 0.00 0.00 44 999.0
20260903100103 81 0 0.0 0.0 0.00 0.00 0.00 47 999.0
20260903095040 80 0 0.0 0.0 0.00 0.00 0.00 43 999.0
20260903094018 80 0 0.0 0.0 0.00 0.00 0.00 38 999.0
20260903092955 80 0 0.0 0.0 0.00 0.00 0.00 38 999.0